This is the latest recevied weather packets stored in our database for station/object 9W2SHB-13. If no packets are shown the sender has not sent any weather packets the latest 10 day(s).
| Time | Temp. | Humidity | Pressure | Rain* | Wind** | Luminosity | Snow |
|---|---|---|---|---|---|---|---|
| 1777609807 | 32.78° C | 60% | 1029.6 hPa | - | - | - | - |
| 1777608907 | 32.22° C | 61% | 1029.7 hPa | - | - | - | - |
| 1777608007 | 32.22° C | 61% | 1029.9 hPa | - | - | - | - |
| 1777607106 | 32.22° C | 61% | 1030.2 hPa | - | - | - | - |
| 1777606206 | 32.22° C | 61% | 1030.4 hPa | - | - | - | - |
| 1777605307 | 31.67° C | 62% | 1030.3 hPa | - | - | - | - |
| 1777604406 | 31.11° C | 63% | 1030.5 hPa | - | - | - | - |
| 1777603506 | 31.11° C | 63% | 1030.3 hPa | - | - | - | - |
| 1777602607 | 31.11° C | 64% | 1030.5 hPa | - | - | - | - |
| 1777601706 | 30.56° C | 65% | 1030.2 hPa | - | - | - | - |
| 1777600807 | 30.56° C | 66% | 1030.2 hPa | - | - | - | - |
| 1777585507 | 30° C | 64% | 1027.1 hPa | - | - | - | - |
| 1777584606 | 30° C | 64% | 1027.2 hPa | - | - | - | - |
| 1777583707 | 30° C | 63% | 1027.3 hPa | - | - | - | - |
| 1777581006 | 30.56° C | 64% | 1028.1 hPa | - | - | - | - |
| 1777580107 | 30.56° C | 64% | 1028.4 hPa | - | - | - | - |
| 1777579206 | 30.56° C | 64% | 1028.5 hPa | - | - | - | - |
| 1777577406 | 31.11° C | 64% | 1028.6 hPa | - | - | - | - |
| 1777576509 | 31.11° C | 64% | 1028.8 hPa | - | - | - | - |
| 1777572907 | 31.11° C | 64% | 1029.3 hPa | - | - | - | - |
| 1777569307 | 31.11° C | 63% | 1030.1 hPa | - | - | - | - |
| 1777566607 | 31.67° C | 62% | 1030.3 hPa | - | - | - | - |
| 1777565707 | 31.67° C | 62% | 1030.5 hPa | - | - | - | - |
| 1777563007 | 31.67° C | 62% | 1030.3 hPa | - | - | - | - |
| 1777562107 | 31.67° C | 61% | 1030 hPa | - | - | - | - |
* Rain since midnight (hover to see other rain measurements)
** Current wind speed in m/s (hover to see current wind gust speed)